Garden City, KS

1:33 PM CDT on August 18, 2017 (GMT -0500)
Garden City Regional

Weather History for KGCK - September, 2013

Change the Weather History Date:

Friday, September 13, 2013

  Actual Average Record
Temperature  
Mean Temperature 65 °F 69 °F  
Max Temperature 70 °F 83 °F 101 °F (1953)
Min Temperature 60 °F 56 °F 36 °F (2014)
Degree Days  
Heating Degree Days 0 1  
Month to date heating degree days 0 10  
Since 1 July heating degree days 0 14  
Cooling Degree Days 0 6  
Month to date cooling degree days 155 98  
Year to date cooling degree days 1497 1214  
Growing Degree Days 15 (Base 50)    
Moisture  
Dew Point 60 °F    
Average Humidity 82    
Maximum Humidity 93    
Minimum Humidity 70    
Precipitation  
Precipitation 0.03 in 0.05 in 0.62 in (1970)
Month to date precipitation 0.73 0.69  
Year to date precipitation 10.90 16.34  
Sea Level Pressure  
Sea Level Pressure 30.10 in    
Wind  
Wind Speed 13 mph (ESE)    
Max Wind Speed 20 mph    
Max Gust Speed 24 mph    
Visibility 8 miles    
Events Rain    
T = Trace of Precipitation, MM = Missing Value Source: NWS Daily Summary

Daily Weather History Graph

Daily Weather History Graph

Search for Another Location

Airport or City:

Trip Planner

Search our weather history database for the weather conditions in past years. The results will help you decide how hot, cold, wet, or windy it might be!

Date:

Astronomy

Sep. 13, 2013 Rise Set
Actual Time 7:23 AM CDT 7:53 PM CDT
Civil Twilight 6:56 AM CDT 8:19 PM CDT
Nautical Twilight 6:25 AM CDT 8:50 PM CDT
Astronomical Twilight 5:53 AM CDT 9:22 PM CDT
Moon 3:40 PM CDT (9/13) 12:58 AM CDT (9/13)
Length of Visible Light 13h 23m
Length of Day
12h 30m
First Quarter, 61% of the Moon is Illuminated
Sep 13
First Quarter
Sep 19
Full
Sep 26
Last Quarter
Oct 4
New
Oct 11
First Quarter

Hourly Weather History & Observations

Time (CDT) Temp. Dew Point Humidity Pressure Visibility Wind Dir Wind Speed Gust Speed Precip Events Conditions
12:54 AM 66.0 °F 64.9 °F 96% 30.12 in 5.0 mi East 9.2 mph - 0.01 in Rain Light Rain
1:54 AM 66.0 °F 64.9 °F 96% 30.12 in 4.0 mi East 9.2 mph - 0.02 in Rain Light Rain
2:02 AM 66.2 °F 64.4 °F 94% 30.19 in 4.0 mi East 9.2 mph - 0.00 in Rain Light Rain
2:43 AM 66.2 °F 64.4 °F 94% 30.18 in 3.0 mi East 6.9 mph - 0.00 in   Overcast
2:54 AM 66.0 °F 64.9 °F 96% 30.10 in 3.0 mi East 9.2 mph - 0.00 in   Overcast
3:54 AM 66.9 °F 64.9 °F 93% 30.08 in 3.0 mi ESE 10.4 mph - N/A   Overcast
4:54 AM 66.9 °F 64.9 °F 93% 30.08 in 3.0 mi East 12.7 mph - N/A   Overcast
5:33 AM 66.2 °F 64.4 °F 94% 30.16 in 4.0 mi East 12.7 mph - N/A   Overcast
5:45 AM 66.2 °F 64.4 °F 94% 30.16 in 4.0 mi East 11.5 mph - N/A   Overcast
5:54 AM 66.0 °F 64.0 °F 93% 30.09 in 3.0 mi East 12.7 mph - N/A   Overcast
6:54 AM 64.9 °F 63.0 °F 93% 30.09 in 4.0 mi East 15.0 mph - N/A   Overcast
7:19 AM 64.4 °F 60.8 °F 88% 30.16 in 8.0 mi ESE 15.0 mph - N/A   Overcast
7:54 AM 63.0 °F 59.0 °F 87% 30.11 in 10.0 mi ESE 17.3 mph 24.2 mph N/A   Overcast
8:22 AM 62.6 °F 57.2 °F 82% 30.17 in 10.0 mi ESE 15.0 mph - N/A   Overcast
8:44 AM 62.6 °F 57.2 °F 82% 30.17 in 10.0 mi ESE 13.8 mph - N/A   Overcast
8:54 AM 62.1 °F 59.0 °F 90% 30.11 in 10.0 mi ESE 15.0 mph - N/A   Overcast
9:24 AM 62.6 °F 57.2 °F 82% 30.18 in 10.0 mi ESE 15.0 mph - N/A   Overcast
9:43 AM 60.8 °F 57.2 °F 88% 30.19 in 10.0 mi SE 13.8 mph - N/A   Overcast
9:54 AM 61.0 °F 57.9 °F 90% 30.13 in 10.0 mi ESE 15.0 mph - N/A   Overcast
10:54 AM 62.1 °F 59.0 °F 90% 30.12 in 9.0 mi ESE 12.7 mph - N/A   Overcast
11:54 AM 63.0 °F 59.0 °F 87% 30.12 in 9.0 mi ESE 16.1 mph - N/A   Overcast
12:54 PM 63.0 °F 59.0 °F 87% 30.11 in 9.0 mi ESE 13.8 mph - N/A   Overcast
1:38 PM 64.4 °F 59.0 °F 83% 30.15 in 9.0 mi SE 16.1 mph - N/A   Overcast
1:54 PM 64.9 °F 59.0 °F 81% 30.08 in 9.0 mi ESE 16.1 mph - N/A   Overcast
2:54 PM 68.0 °F 60.1 °F 76% 30.05 in 10.0 mi SE 13.8 mph - N/A   Overcast
3:04 PM 69.8 °F 60.8 °F 73% 30.11 in 10.0 mi ESE 15.0 mph 20.7 mph N/A   Overcast
3:30 PM 69.8 °F 60.8 °F 73% 30.10 in 10.0 mi SE 12.7 mph - N/A   Overcast
3:54 PM 70.0 °F 60.1 °F 71% 30.01 in 10.0 mi SE 13.8 mph - N/A   Overcast
4:54 PM 69.1 °F 60.1 °F 73% 30.01 in 10.0 mi ESE 16.1 mph - N/A   Overcast
5:54 PM 69.1 °F 59.0 °F 70% 30.00 in 10.0 mi ESE 15.0 mph - N/A   Overcast
6:54 PM 66.9 °F 60.1 °F 79% 30.00 in 10.0 mi SE 15.0 mph - N/A   Partly Cloudy
7:54 PM 64.9 °F 60.1 °F 84% 30.01 in 10.0 mi SE 15.0 mph - N/A   Scattered Clouds
8:54 PM 64.0 °F 59.0 °F 84% 30.00 in 10.0 mi ESE 15.0 mph - N/A   Scattered Clouds
9:54 PM 63.0 °F 57.0 °F 81% 30.01 in 10.0 mi SE 17.3 mph - 0.01 in   Partly Cloudy
10:54 PM 62.1 °F 55.0 °F 78% 30.01 in 10.0 mi SE 11.5 mph - N/A   Scattered Clouds
11:54 PM 61.0 °F 55.9 °F 83% 30.02 in 10.0 mi South 5.8 mph - N/A   Mostly Cloudy